| time (UTC) | temp F | wind direction | speed MPH | gust MPH | rain 1hr in | rain 24hr in | rain mn in | humidity % | barometer mb |
| 20260904232521 | 83 | 115 | 5.0 | 9.0 | 0.00 | 0.00 | 0.00 | 83 | 1014.0 |
| 20260904231516 | 83 | 112 | 5.0 | 7.0 | 0.00 | 0.00 | 0.00 | 82 | 1013.7 |
| 20260904230531 | 84 | 117 | 5.0 | 10.0 | 0.00 | 0.00 | 0.00 | 81 | 1013.8 |
| 20260904225526 | 84 | 122 | 5.0 | 10.0 | 0.00 | 0.00 | 0.00 | 80 | 1014.0 |
| 20260904224521 | 84 | 111 | 5.0 | 11.0 | 0.00 | 0.00 | 0.00 | 80 | 1014.0 |
| 20260904223516 | 84 | 121 | 5.0 | 9.0 | 0.00 | 0.00 | 0.00 | 79 | 1013.8 |
| 20260904222532 | 85 | 119 | 5.0 | 12.0 | 0.00 | 0.00 | 0.00 | 79 | 1013.8 |
| 20260904221527 | 85 | 131 | 6.0 | 9.0 | 0.00 | 0.00 | 0.00 | 79 | 1013.8 |
| 20260904220522 | 85 | 124 | 5.0 | 9.0 | 0.00 | 0.00 | 0.00 | 79 | 1013.7 |
| 20260904215517 | 85 | 127 | 5.0 | 8.0 | 0.00 | 0.00 | 0.00 | 80 | 1013.7 |
| 20260904214533 | 85 | 124 | 6.0 | 10.0 | 0.00 | 0.00 | 0.00 | 80 | 1013.6 |
| 20260904213528 | 85 | 127 | 6.0 | 10.0 | 0.00 | 0.00 | 0.00 | 79 | 1013.7 |
| 20260904212523 | 85 | 135 | 5.0 | 11.0 | 0.00 | 0.00 | 0.00 | 79 | 1013.6 |
| 20260904211518 | 86 | 130 | 5.0 | 10.0 | 0.00 | 0.00 | 0.00 | 80 | 1013.8 |
| 20260904210534 | 86 | 126 | 5.0 | 12.0 | 0.00 | 0.00 | 0.00 | 79 | 1013.9 |
| 20260904205529 | 87 | 130 | 5.0 | 9.0 | 0.00 | 0.00 | 0.00 | 78 | 1014.0 |
| 20260904204524 | 87 | 131 | 5.0 | 9.0 | 0.00 | 0.00 | 0.00 | 76 | 1014.3 |
| 20260904203519 | 88 | 118 | 4.0 | 7.0 | 0.00 | 0.00 | 0.00 | 75 | 1014.6 |
| 20260904202534 | 87 | 128 | 5.0 | 7.0 | 0.00 | 0.00 | 0.00 | 75 | 1014.5 |
| 20260904201529 | 88 | 138 | 5.0 | 9.0 | 0.00 | 0.00 | 0.00 | 73 | 1014.7 |
| 20260904200525 | 88 | 136 | 5.0 | 10.0 | 0.00 | 0.00 | 0.00 | 74 | 1014.8 |
| 20260904195520 | 88 | 124 | 4.0 | 8.0 | 0.00 | 0.00 | 0.00 | 75 | 1015.0 |
| 20260904194535 | 88 | 122 | 5.0 | 11.0 | 0.00 | 0.00 | 0.00 | 74 | 1015.0 |
| 20260904193530 | 88 | 137 | 6.0 | 13.0 | 0.00 | 0.00 | 0.00 | 75 | 1015.2 |
| 20260904192525 | 89 | 134 | 6.0 | 10.0 | 0.00 | 0.00 | 0.00 | 72 | 1015.4 |
| 20260904191521 | 89 | 120 | 4.0 | 8.0 | 0.00 | 0.00 | 0.00 | 72 | 1015.4 |
| 20260904190536 | 89 | 113 | 4.0 | 6.0 | 0.00 | 0.00 | 0.00 | 72 | 1015.5 |
| 20260904185531 | 89 | 121 | 5.0 | 6.0 | 0.00 | 0.00 | 0.00 | 73 | 1015.4 |
| 20260904184526 | 89 | 130 | 6.0 | 12.0 | 0.00 | 0.00 | 0.00 | 72 | 1015.6 |
| 20260904183522 | 89 | 133 | 5.0 | 11.0 | 0.00 | 0.00 | 0.00 | 71 | 1015.8 |
| 20260904182517 | 89 | 134 | 4.0 | 8.0 | 0.00 | 0.00 | 0.00 | 71 | 1015.8 |
| 20260904181532 | 89 | 120 | 5.0 | 10.0 | 0.00 | 0.00 | 0.00 | 71 | 1015.8 |
| 20260904180527 | 90 | 127 | 4.0 | 9.0 | 0.00 | 0.00 | 0.00 | 70 | 1016.0 |
| 20260904175521 | 89 | 127 | 3.0 | 6.0 | 0.00 | 0.00 | 0.00 | 70 | 1016.1 |
| 20260904174516 | 89 | 132 | 5.0 | 10.0 | 0.00 | 0.00 | 0.00 | 70 | 1016.3 |
| 20260904173532 | 89 | 121 | 4.0 | 8.0 | 0.00 | 0.00 | 0.00 | 69 | 1016.3 |
| 20260904172526 | 89 | 124 | 5.0 | 9.0 | 0.00 | 0.00 | 0.00 | 69 | 1016.3 |
| 20260904171522 | 89 | 125 | 5.0 | 9.0 | 0.00 | 0.00 | 0.00 | 67 | 1016.5 |
| 20260904170536 | 89 | 123 | 4.0 | 6.0 | 0.00 | 0.00 | 0.00 | 68 | 1016.5 |
| 20260904165530 | 89 | 122 | 5.0 | 8.0 | 0.00 | 0.00 | 0.00 | 67 | 1016.5 |
| 20260904164525 | 89 | 126 | 5.0 | 8.0 | 0.00 | 0.00 | 0.00 | 67 | 1016.7 |
| 20260904163520 | 89 | 133 | 5.0 | 10.0 | 0.00 | 0.00 | 0.00 | 70 | 1016.8 |
| 20260904162536 | 89 | 116 | 4.0 | 7.0 | 0.00 | 0.00 | 0.00 | 69 | 1016.9 |
| 20260904161531 | 88 | 127 | 5.0 | 7.0 | 0.00 | 0.00 | 0.00 | 71 | 1016.9 |
| 20260904160526 | 89 | 117 | 4.0 | 6.0 | 0.00 | 0.00 | 0.00 | 70 | 1017.1 |
| 20260904155521 | 88 | 118 | 5.0 | 9.0 | 0.00 | 0.00 | 0.00 | 72 | 1017.1 |
| 20260904154516 | 89 | 120 | 5.0 | 7.0 | 0.00 | 0.00 | 0.00 | 72 | 1017.1 |
| 20260904153532 | 88 | 118 | 5.0 | 9.0 | 0.00 | 0.00 | 0.00 | 69 | 1017.1 |
| 20260904152527 | 88 | 111 | 4.0 | 6.0 | 0.00 | 0.00 | 0.00 | 73 | 1017.0 |
| 20260904151522 | 87 | 117 | 4.0 | 9.0 | 0.00 | 0.00 | 0.00 | 75 | 1017.1 |
| 20260904150518 | 88 | 117 | 5.0 | 8.0 | 0.00 | 0.00 | 0.00 | 73 | 1017.2 |
| 20260904145533 | 88 | 109 | 4.0 | 10.0 | 0.00 | 0.00 | 0.00 | 73 | 1017.0 |
| 20260904144528 | 87 | 109 | 4.0 | 6.0 | 0.00 | 0.00 | 0.00 | 74 | 1016.9 |
| 20260904143523 | 87 | 117 | 4.0 | 7.0 | 0.00 | 0.00 | 0.00 | 76 | 1016.9 |
| 20260904142518 | 86 | 150 | 9.0 | 13.0 | 0.00 | 0.00 | 0.00 | 76 | 1016.9 |
| 20260904141534 | 86 | 150 | 8.0 | 12.0 | 0.00 | 0.00 | 0.00 | 77 | 1016.8 |
| 20260904140529 | 86 | 144 | 9.0 | 12.0 | 0.00 | 0.00 | 0.00 | 77 | 1017.0 |
| 20260904135524 | 86 | 144 | 7.0 | 11.0 | 0.00 | 0.00 | 0.00 | 78 | 1016.9 |
| 20260904134520 | 85 | 148 | 9.0 | 13.0 | 0.00 | 0.00 | 0.00 | 79 | 1016.7 |
| 20260904133534 | 84 | 149 | 8.0 | 13.0 | 0.00 | 0.00 | 0.00 | 82 | 1016.7 |
| 20260904132530 | 84 | 147 | 9.0 | 12.0 | 0.00 | 0.00 | 0.00 | 83 | 1016.7 |
| 20260904131525 | 84 | 141 | 7.0 | 9.0 | 0.00 | 0.00 | 0.00 | 83 | 1016.6 |
| 20260904130519 | 83 | 146 | 7.0 | 10.0 | 0.00 | 0.00 | 0.00 | 87 | 1016.7 |
| 20260904125535 | 81 | 145 | 9.0 | 12.0 | 0.00 | 0.00 | 0.00 | 92 | 1016.7 |
| 20260904124530 | 80 | 137 | 8.0 | 10.0 | 0.00 | 0.00 | 0.00 | 95 | 1016.7 |
| 20260904123525 | 79 | 136 | 8.0 | 9.0 | 0.00 | 0.00 | 0.00 | 97 | 1016.7 |
| 20260904122520 | 78 | 135 | 7.0 | 9.0 | 0.00 | 0.00 | 0.00 | 97 | 1016.6 |
| 20260904121535 | 78 | 135 | 8.0 | 10.0 | 0.00 | 0.00 | 0.00 | 97 | 1016.7 |
| 20260904120531 | 77 | 129 | 8.0 | 10.0 | 0.00 | 0.00 | 0.00 | 97 | 1016.7 |
| 20260904115526 | 77 | 134 | 8.0 | 10.0 | 0.00 | 0.00 | 0.00 | 97 | 1016.4 |
| 20260904114521 | 76 | 134 | 8.0 | 11.0 | 0.00 | 0.00 | 0.00 | 97 | 1016.6 |
| 20260904113536 | 76 | 134 | 9.0 | 10.0 | 0.00 | 0.00 | 0.00 | 97 | 1016.5 |
| 20260904112531 | 76 | 133 | 9.0 | 11.0 | 0.00 | 0.00 | 0.00 | 97 | 1016.6 |
| 20260904111526 | 76 | 134 | 8.0 | 10.0 | 0.00 | 0.00 | 0.00 | 97 | 1016.5 |
| 20260904110522 | 76 | 132 | 9.0 | 10.0 | 0.00 | 0.00 | 0.00 | 97 | 1016.3 |
| 20260904105517 | 76 | 134 | 9.0 | 11.0 | 0.00 | 0.00 | 0.00 | 96 | 1016.2 |
| 20260904104532 | 76 | 127 | 7.0 | 9.0 | 0.00 | 0.00 | 0.00 | 96 | 1016.2 |
| 20260904103527 | 77 | 141 | 8.0 | 10.0 | 0.00 | 0.00 | 0.00 | 96 | 1016.1 |
| 20260904102523 | 77 | 140 | 8.0 | 10.0 | 0.00 | 0.00 | 0.00 | 96 | 1016.0 |
| 20260904101517 | 77 | 130 | 8.0 | 9.0 | 0.00 | 0.00 | 0.00 | 96 | 1015.8 |
| 20260904100533 | 77 | 135 | 8.0 | 10.0 | 0.00 | 0.00 | 0.00 | 96 | 1015.7 |
| 20260904095528 | 77 | 128 | 7.0 | 10.0 | 0.00 | 0.00 | 0.00 | 96 | 1015.6 |
| 20260904094523 | 78 | 138 | 9.0 | 10.0 | 0.00 | 0.00 | 0.00 | 96 | 1015.7 |
| 20260904093518 | 78 | 141 | 8.0 | 10.0 | 0.00 | 0.00 | 0.00 | 95 | 1015.7 |
| 20260904092533 | 78 | 137 | 9.0 | 10.0 | 0.00 | 0.00 | 0.00 | 95 | 1015.6 |
| 20260904091529 | 78 | 133 | 7.0 | 9.0 | 0.00 | 0.00 | 0.00 | 95 | 1015.5 |
| 20260904090523 | 78 | 127 | 7.0 | 9.0 | 0.00 | 0.00 | 0.00 | 95 | 1015.5 |
| 20260904085518 | 78 | 136 | 8.0 | 10.0 | 0.00 | 0.00 | 0.00 | 95 | 1015.4 |
| 20260904084533 | 78 | 136 | 8.0 | 10.0 | 0.00 | 0.00 | 0.00 | 95 | 1015.4 |
| 20260904083528 | 78 | 141 | 9.0 | 11.0 | 0.00 | 0.00 | 0.00 | 95 | 1015.3 |
| 20260904082523 | 78 | 135 | 8.0 | 10.0 | 0.00 | 0.00 | 0.00 | 95 | 1015.3 |
| 20260904081518 | 78 | 123 | 6.0 | 9.0 | 0.00 | 0.00 | 0.00 | 94 | 1015.4 |
| 20260904080533 | 78 | 137 | 8.0 | 11.0 | 0.00 | 0.00 | 0.00 | 94 | 1015.5 |
| 20260904075528 | 79 | 138 | 8.0 | 10.0 | 0.00 | 0.00 | 0.00 | 94 | 1015.4 |
| 20260904074523 | 79 | 138 | 8.0 | 9.0 | 0.00 | 0.00 | 0.00 | 93 | 1015.5 |
| 20260904073518 | 79 | 136 | 8.0 | 9.0 | 0.00 | 0.00 | 0.00 | 93 | 1015.6 |
| 20260904072534 | 79 | 137 | 8.0 | 9.0 | 0.00 | 0.00 | 0.00 | 93 | 1015.7 |
| 20260904071529 | 79 | 136 | 8.0 | 9.0 | 0.00 | 0.00 | 0.00 | 93 | 1015.7 |
| 20260904070523 | 79 | 135 | 8.0 | 9.0 | 0.00 | 0.00 | 0.00 | 92 | 1015.7 |
| 20260904065519 | 80 | 136 | 8.0 | 9.0 | 0.00 | 0.00 | 0.00 | 92 | 1015.6 |
| 20260904064534 | 80 | 137 | 8.0 | 9.0 | 0.00 | 0.00 | 0.00 | 91 | 1015.7 |
| 20260904063529 | 80 | 138 | 8.0 | 9.0 | 0.00 | 0.00 | 0.00 | 90 | 1015.8 |
| 20260904062525 | 81 | 136 | 8.0 | 9.0 | 0.00 | 0.00 | 0.00 | 89 | 1016.0 |
| 20260904061519 | 81 | 139 | 8.0 | 10.0 | 0.00 | 0.00 | 0.00 | 89 | 1016.1 |
| 20260904060535 | 81 | 141 | 8.0 | 9.0 | 0.00 | 0.00 | 0.00 | 90 | 1016.2 |
| 20260904055532 | 81 | 137 | 8.0 | 9.0 | 0.00 | 0.00 | 0.00 | 90 | 1016.4 |
| 20260904054525 | 81 | 136 | 8.0 | 9.0 | 0.00 | 0.00 | 0.00 | 89 | 1016.5 |
| 20260904053520 | 81 | 138 | 8.0 | 9.0 | 0.00 | 0.00 | 0.00 | 89 | 1016.7 |
| 20260904052535 | 81 | 138 | 8.0 | 10.0 | 0.00 | 0.00 | 0.00 | 90 | 1016.8 |
| 20260904051530 | 81 | 139 | 8.0 | 10.0 | 0.00 | 0.00 | 0.00 | 89 | 1016.9 |
| 20260904050525 | 81 | 137 | 8.0 | 9.0 | 0.00 | 0.00 | 0.00 | 88 | 1017.0 |
| 20260904045520 | 81 | 140 | 8.0 | 10.0 | 0.00 | 0.00 | 0.00 | 88 | 1017.1 |
| 20260904044535 | 81 | 140 | 9.0 | 10.0 | 0.00 | 0.00 | 0.00 | 89 | 1017.0 |
| 20260904043530 | 81 | 141 | 8.0 | 10.0 | 0.00 | 0.00 | 0.00 | 89 | 1017.1 |
| 20260904042525 | 81 | 136 | 8.0 | 9.0 | 0.00 | 0.00 | 0.00 | 89 | 1017.2 |
| 20260904041521 | 81 | 136 | 8.0 | 9.0 | 0.00 | 0.00 | 0.00 | 89 | 1017.2 |
| 20260904040536 | 81 | 137 | 8.0 | 10.0 | 0.00 | 0.00 | 0.00 | 89 | 1017.2 |
| 20260904035531 | 81 | 135 | 8.0 | 9.0 | 0.00 | 0.00 | 0.00 | 88 | 1017.3 |
| 20260904034526 | 81 | 140 | 8.0 | 10.0 | 0.00 | 0.00 | 0.00 | 88 | 1017.3 |
| 20260904033521 | 81 | 140 | 8.0 | 9.0 | 0.00 | 0.00 | 0.00 | 88 | 1017.3 |
| 20260904032516 | 81 | 143 | 9.0 | 11.0 | 0.00 | 0.00 | 0.00 | 89 | 1017.2 |
| 20260904031532 | 81 | 139 | 8.0 | 10.0 | 0.00 | 0.00 | 0.00 | 89 | 1017.3 |
| 20260904030527 | 81 | 138 | 8.0 | 10.0 | 0.00 | 0.00 | 0.00 | 88 | 1017.3 |
| 20260904025522 | 81 | 142 | 8.0 | 11.0 | 0.00 | 0.00 | 0.00 | 88 | 1017.3 |
| 20260904024517 | 81 | 139 | 8.0 | 10.0 | 0.00 | 0.00 | 0.00 | 87 | 1017.4 |
| 20260904023532 | 81 | 140 | 9.0 | 10.0 | 0.00 | 0.00 | 0.00 | 87 | 1017.4 |
| 20260904022527 | 81 | 137 | 8.0 | 10.0 | 0.00 | 0.00 | 0.00 | 87 | 1017.5 |
| 20260904021522 | 81 | 138 | 8.0 | 9.0 | 0.00 | 0.00 | 0.00 | 87 | 1017.5 |
| 20260904020518 | 81 | 139 | 8.0 | 9.0 | 0.00 | 0.00 | 0.00 | 87 | 1017.3 |
| 20260904015532 | 81 | 142 | 8.0 | 11.0 | 0.00 | 0.00 | 0.00 | 87 | 1017.2 |
| 20260904014528 | 81 | 138 | 8.0 | 9.0 | 0.00 | 0.00 | 0.00 | 86 | 1017.1 |
| 20260904013523 | 82 | 139 | 8.0 | 9.0 | 0.00 | 0.00 | 0.00 | 85 | 1017.0 |
| 20260904012518 | 82 | 142 | 9.0 | 10.0 | 0.00 | 0.00 | 0.00 | 85 | 1016.9 |
| 20260904011534 | 82 | 140 | 8.0 | 10.0 | 0.00 | 0.00 | 0.00 | 86 | 1016.7 |
| 20260904010529 | 82 | 142 | 8.0 | 12.0 | 0.00 | 0.00 | 0.00 | 86 | 1016.6 |
| 20260904005524 | 82 | 140 | 8.0 | 10.0 | 0.00 | 0.00 | 0.00 | 86 | 1016.6 |
| 20260904004519 | 82 | 143 | 8.0 | 9.0 | 0.00 | 0.00 | 0.00 | 85 | 1016.3 |
| 20260904003535 | 82 | 143 | 9.0 | 10.0 | 0.00 | 0.00 | 0.00 | 85 | 1016.1 |
| 20260904002529 | 82 | 141 | 9.0 | 10.0 | 0.00 | 0.00 | 0.00 | 84 | 1016.0 |
| 20260904001525 | 82 | 143 | 8.0 | 10.0 | 0.00 | 0.00 | 0.00 | 84 | 1016.1 |
| 20260904000520 | 82 | 140 | 8.0 | 10.0 | 0.00 | 0.00 | 0.00 | 85 | 1016.0 |
| 20260903235535 | 83 | 145 | 9.0 | 10.0 | 0.00 | 0.00 | 0.00 | 86 | 1015.9 |
| 20260903234530 | 83 | 142 | 8.0 | 10.0 | 0.00 | 0.00 | 0.00 | 86 | 1015.7 |
| 20260903233525 | 83 | 139 | 8.0 | 10.0 | 0.00 | 0.00 | 0.00 | 85 | 1015.9 |